ITY964 YPDN-WAAA

Flight info

Callsign ITY964
Flight time N/A
Altitude 40000
Route JULIE J61 IKUMA Z86 DIL W37 NUKPO
Aircraft A359/H-SDE2E3GHIJ3J4J5LM1ORWXY/LB1D1

Departure

Time 2026-04-09 13:03
Airport Darwin International Airport / RAAF Darwin (YPDN)

Arrival

Time N/A
Airport Sultan Hasanuddin International Airport (WAAA)
Time Latitude Longitude Altitude Speed Heading
2026-04-09 12:45 -12.40797 130.87519 96 ft 0 kts 59°
2026-04-09 12:54 -12.40805 130.87506 96 ft 3 kts 56°
2026-04-09 12:54 -12.40809 130.87490 95 ft 0 kts 149°
2026-04-09 12:58 -12.40832 130.87509 97 ft 9 kts 137°
2026-04-09 12:58 -12.40896 130.87568 99 ft 16 kts 138°
2026-04-09 12:58 -12.41005 130.87592 98 ft 19 kts 188°
2026-04-09 12:59 -12.41065 130.87528 98 ft 9 kts 261°
2026-04-09 12:59 -12.41058 130.87459 97 ft 12 kts 285°
2026-04-09 12:59 -12.41024 130.87355 98 ft 21 kts 289°
2026-04-09 12:59 -12.40968 130.87185 99 ft 29 kts 289°
2026-04-09 13:00 -12.40896 130.87014 99 ft 4 kts 275°
2026-04-09 13:00 -12.40897 130.86996 99 ft 17 kts 264°
2026-04-09 13:01 -12.40906 130.86954 96 ft 3 kts 243°
2026-04-09 13:01 -12.40924 130.86947 99 ft 6 kts 198°
2026-04-09 13:01 -12.41004 130.86934 97 ft 16 kts 194°
2026-04-09 13:01 -12.41055 130.86933 99 ft 4 kts 141°
2026-04-09 13:02 -12.41079 130.86965 99 ft 6 kts 115°
2026-04-09 13:02 -12.41140 130.87130 99 ft 60 kts 110°
2026-04-09 13:02 -12.41361 130.87776 98 ft 130 kts 109°
2026-04-09 13:02 -12.41706 130.88810 354 ft 169 kts 110°
2026-04-09 13:03 -12.42095 130.89970 1124 ft 171 kts 110°
2026-04-09 13:03 -12.42506 130.91172 1730 ft 197 kts 109°
2026-04-09 13:03 -12.43000 130.92613 2118 ft 233 kts 109°
2026-04-09 13:03 -12.43546 130.94247 2700 ft 248 kts 109°
2026-04-09 13:04 -12.44113 130.95936 3310 ft 254 kts 109°
2026-04-09 13:04 -12.44693 130.97657 3982 ft 257 kts 109°
2026-04-09 13:04 -12.45241 130.99401 4714 ft 258 kts 103°